#timestamp,LO_Frequency,Hit 
1500807615.1,286046935.1,N
1500807616.0,286046935.1,N
1500807635.8,286046934.7,N
1500807655.7,286046932.8,N
1500807675.5,286046932.3,N
1500807695.3,286046930.7,N
1500807715.1,286046928.9,N
1500807735.9,286046928.8,N
1500807755.7,286046928.1,N
1500807775.5,286046928.0,N
1500807795.4,286046929.0,N
1500807815.2,286046926.3,N
1500807835.0,286046927.3,N
1500807835.9,286046927.3,N
1500807855.8,286046925.8,N
1500807875.6,286046923.9,N
1500807895.4,286046922.2,N
1500807915.3,286046922.3,N
1500807935.1,286046920.4,N
1500807955.8,286046920.8,N
1500807975.7,286046920.4,N
1500807995.5,286046920.5,N
1500808015.3,286046921.0,N
1500808035.2,286046920.2,N
1500808055.9,286046920.0,N
1500808075.7,286046920.7,N
1500808095.6,286046921.2,N
1500808115.4,286046921.0,N
1500808135.2,286046920.1,N
1500808155.1,286046919.4,N
1500808156.0,286046919.4,N
1500808175.8,286046916.9,N
1500808195.6,286046917.3,N
1500808215.5,286046917.8,N
1500808235.3,286046916.2,N
1500808255.1,286046915.0,N
1500808275.8,286046915.2,N
1500808295.7,286046914.0,N
1500808315.5,286046913.9,N
1500808335.3,286046916.3,N
1500808355.2,286046915.7,N
1500808375.9,286046915.8,N
1500808395.7,286046916.2,N
1500808415.6,286046915.1,N
1500808435.4,286046916.1,N
1500808455.2,286046914.7,N
1500808475.1,286046912.6,N
1500808476.0,286046912.6,N
1500808495.8,286046911.1,N
1500808515.6,286046910.6,N
1500808535.4,286046910.5,N
1500808555.3,286046912.8,N
1500808575.1,286046912.9,N
1500808595.8,286046908.9,N
1500808615.7,286046908.8,N
1500808635.5,286046910.5,N
1500808655.3,286046914.4,N
1500808675.2,286046914.4,N
1500808695.0,286046912.1,N
1500808695.9,286046912.1,N
1500808715.7,286046912.7,N
1500808735.6,286046912.6,N
1500808755.4,286046913.9,N
1500808775.2,286046917.6,N
1500808795.1,286046919.0,N
1500808796.0,286046919.0,N
1500808815.8,286046921.5,N
1500808835.6,286046923.8,N
1500808855.5,286046923.3,N
1500808875.3,286046923.5,N
1500808895.1,286046925.6,N
1500808915.9,286046923.0,N
1500808935.7,286046921.7,N
1500808955.5,286046922.7,N
1500808975.4,286046918.2,N
1500808995.2,286046920.9,N
1500809015.0,286046920.5,N
1500809015.9,286046920.5,N
1500809035.8,286046920.3,N
1500809055.6,286046922.8,N
1500809075.4,286046921.6,N
1500809095.3,286046926.0,N
1500809115.1,286046927.0,N
1500809116.0,286046927.0,N
1500809135.8,286046928.9,N
1500809155.7,286046930.3,N
1500809175.5,286046931.7,N
1500809195.3,286046935.6,N
1500809215.1,286046931.7,N
1500809235.9,286046930.1,N
1500809255.7,286046930.1,N
1500809275.5,286046931.2,N
1500809295.4,286046931.0,N
1500809315.2,286046931.7,N
1500809335.0,286046929.7,N
1500809335.9,286046929.7,N
1500809355.8,286046926.1,N
1500809375.6,286046925.6,N
1500809395.4,286046923.9,N
1500809415.3,286046922.4,N
1500809435.1,286046918.2,N
1500809455.8,286046918.8,N
1500809475.7,286046918.9,N
1500809495.5,286046917.7,N
1500809515.3,286046918.0,N
1500809535.2,286046915.4,N
1500809555.9,286046916.3,N
1500809575.7,286046916.3,N
1500809595.6,286046913.9,N
1500809615.4,286046912.9,N
1500809635.2,286046913.0,N
1500809655.0,286046913.1,N
1500809656.0,286046913.1,N
1500809675.8,286046910.5,N
1500809695.6,286046911.6,N
1500809715.5,286046908.7,N
1500809735.3,286046908.9,N
1500809755.1,286046909.4,N
1500809775.8,286046909.0,N
1500809795.7,286046910.3,N
1500809815.5,286046914.1,N
1500809835.3,286046911.7,N
1500809855.2,286046910.2,N
1500809875.0,286046911.5,N
1500809875.9,286046911.5,N
1500809895.7,286046911.0,N
1500809915.6,286046908.5,N
1500809935.4,286046908.7,N
1500809955.2,286046910.2,N
1500809975.1,286046912.2,N
1500809976.0,286046912.2,N
1500809995.8,286046913.8,N
1500810015.6,286046913.8,N
1500810035.5,286046915.8,N
1500810055.3,286046915.0,N
1500810075.1,286046915.8,N
1500810095.9,286046915.7,N
1500810115.7,286046912.2,N
1500810135.5,286046910.5,N
1500810155.4,286046911.1,N
1500810175.2,286046911.0,N
1500810195.0,286046909.9,N
1500810195.9,286046909.9,N
1500810215.8,286046906.9,N
1500810235.6,286046908.4,N
1500810255.4,286046903.9,N
1500810275.3,286046902.1,N
1500810295.1,286046904.8,N
1500810296.0,286046904.8,N
1500810315.8,286046903.1,N
1500810335.7,286046905.1,N
1500810355.5,286046903.4,N
1500810375.3,286046903.6,N
1500810395.2,286046903.5,N
1500810415.9,286046903.5,N
1500810435.7,286046903.5,N
1500810455.6,286046900.6,N
1500810475.4,286046901.6,N
1500810495.2,286046899.6,N
1500810515.1,286046897.9,N
1500810516.0,286046897.9,N
1500810535.8,286046897.0,N
1500810555.6,286046897.2,N
1500810575.5,286046897.1,N
1500810595.3,286046894.9,N
1500810615.1,286046893.1,N
1500810635.9,286046895.5,N
1500810655.7,286046895.2,N
1500810675.5,286046894.9,N
1500810695.3,286046894.5,N
1500810715.2,286046896.2,N
1500810735.0,286046895.9,N
1500810735.9,286046895.9,N
1500810755.7,286046894.7,N
1500810775.6,286046894.9,N
1500810795.4,286046892.7,N
1500810815.2,286046893.9,N
1500810835.1,286046891.1,N
1500810836.0,286046891.1,N
1500810855.8,286046890.1,N
1500810875.6,286046890.2,N
1500810895.5,286046890.4,N
1500810915.3,286046890.3,N
1500810935.1,286046888.4,N
1500810955.9,286046888.8,N
1500810975.7,286046887.3,N
1500810995.5,286046886.0,N
1500811015.4,286046883.0,N
1500811035.2,286046883.5,N
1500811055.0,286046881.5,N
1500811055.9,286046881.5,N
1500811075.8,286046881.8,N
1500811095.6,286046883.3,N
1500811115.4,286046885.1,N
1500811135.3,286046885.8,N
1500811155.1,286046885.5,N
1500811156.0,286046885.5,N
1500811175.8,286046883.2,N
1500811195.7,286046883.8,N
